IRIDIUM 111

Last updated on Tue Sep 22 2026 00:03:20 GMT+0000 (Coordinated Universal Time)

1 41926U 17003K 26264.47118838 .00000157 00000+0 49069-4 0 9997 2 41926 86.3950 48.0879 0002131 90.8803 269.2637 14.34217768507051
UTC large
Height (km)
Speed (km/s)
/
Latitude / Longitude
Inclination (degrees)
Orbital Period (minutes)
Azimuth
Elevation
Range (km)
Doppler Factor

Next 0 passes for location: London (51.5072 / 0.1276)

No passes found over London.
IRIDIUM 111